Other Public Products
Issued by NWS Charleston, SC

Home | Current Version | Previous Version | Text Only | Print | Product List | Glossary On
Versions: 1 2 3 4 5 6 7 8 9 10 11 12 13 14 15 16 17 18 19 20 21 22 23 24 25 26 27 28 29 30 31 32 33 34 35 36 37 38 39 40 41 42 43 44 45 46 47 48 49 50
737
FPUS82 KCHS 202012
OPUCHS

TEST...KCHS/KSAV Gateway Observations...TEST
National Weather Service Charleston SC
300 PM EST MON FEB 20 2017

NOTE: "fair" indicates few or no clouds below 12,000 feet with no
significant weather and/or obstructions to visibility.

SCZ050-WAZ558-NCZ071-TXZ119-213-PAZ071-DCZ001-FLZ074-172-MI076-
NYZ176-178-MAZ016-IL014-TNZ027-NJZ106-GAZ044-MD014-202100-
...Gateway Observations for Charleston International...

CITY           SKY/WX    TMP DP  RH WIND       PRES   REMARKS
Chas Airport   MOSUNNY   75  47  36 S10       30.14S
Seattle        LGT RAIN  44  43  96 NW13      29.53R
Charlotte      PTSUNNY   72  37  28 VRB3      30.16F
Dallas DFW     CLOUDY    64  58  80 S15       29.89F
Dallas Love    CLOUDY    62  56  80 S8        29.90F
Philladelphia  MOSUNNY   57  24  28 NW16G22   30.21R
Wash National  MOSUNNY   67  33  28 NW5       30.19R
Baltimore      MOSUNNY   63  29  27 N9        30.19R
Miami          PTSUNNY   75  61  61 E9        30.07F
Detroit        CLOUDY    55  35  47 SE10      30.24F
Newark         MOSUNNY   55  10  16 NW20G26   30.17S
Laguardia      SUNNY     54  18  24 NW10G22   30.16S
J F K          MOSUNNY   55  19  24 N16G22    30.17S
Boston Logan   MOSUNNY   43  16  33 NW13G20   30.18R
Ft. Lauderdale MOSUNNY   79  62  56 E15       30.06F
Chicago O`Hare CLOUDY    69  48  47 S18       30.00F
Chicago Midway CLOUDY    68  46  45 S15G23    30.02F
Houston Bush   RAIN      61  59  93 NE12      29.96F FOG
Houston Hobby  LGT RAIN  62  59  90 NE12      29.96F
Nashville      CLOUDY    75  46  35 SE9       30.09F
Atlanta        PTSUNNY   73  46  38 VRB6      30.14F

$$

GAZ044-118-TXZ119-213-NCZ071-DCZ001-MDZ014-506-PAZ021-071-NJZ106-
NYZ176-178-MAZ106-OHZ011-021-055-MIZ076-KYZ091-ILZ014-INZ047-
MNZ060-202100-
...Gateway Observations for Savannah International...

CITY           SKY/WX    TMP DP  RH WIND       PRES   REMARKS
Savannah Arpt  CLOUDY    77  46  33 E8        30.14S
Atlanta        PTSUNNY   73  46  38 VRB6      30.14F
Charlotte      PTSUNNY   72  37  28 VRB3      30.16F
Dallas DFW     CLOUDY    64  58  80 S15       29.89F
Houston Bush   RAIN      61  59  93 NE12      29.96F FOG
Wash National  MOSUNNY   67  33  28 NW5       30.19R
Wash Dulles    MOSUNNY   64  34  32 N10       30.19R
Baltimore      MOSUNNY   63  29  27 N9        30.19R
Philadelphia   MOSUNNY   57  24  28 NW16G22   30.21R
Newark         MOSUNNY   55  10  16 NW20G26   30.17S
Laguardia      SUNNY     54  18  24 NW10G22   30.16S
J F K          MOSUNNY   55  19  24 N16G22    30.17S
Boston         MOSUNNY   43  16  33 NW13G20   30.18R
Pittsburg      PTSUNNY   60  33  36 N3        30.21F
Akron          PTSUNNY   60  33  36 S5        30.21F
Cleveland      CLOUDY    50  32  50 N10       30.24F
Cincinnati     PTSUNNY   63  50  62 E8        30.14F
Columbus       SUNNY     58  51  75 E5        30.18S
Detroit        CLOUDY    55  35  47 SE10      30.24F
Chicago O`Hare CLOUDY    69  48  47 S18       30.00F
Minneapolis    LGT RAIN  51  49  92 SE14      29.67F
Indianapolis   PTSUNNY   65  48  54 SE12      30.09F

$$




USA.gov is the U.S. government's official web portal to all federal, state and local government web resources and services.